This is the latest recevied weather packets stored in our database for station/object 9M4GEK-3. If no packets are shown the sender has not sent any weather packets the latest 10 day(s).
| Time | Temp. | Humidity | Pressure | Rain* | Wind** | Luminosity | Snow |
|---|---|---|---|---|---|---|---|
| 1778333431 | 28.89° C | 70% | 1007.2 hPa | - | - | - | - |
| 1778333287 | 28.89° C | 70% | 1007.2 hPa | - | - | - | - |
| 1778332387 | 28.89° C | 69% | 1007 hPa | - | - | - | - |
| 1778331636 | 28.89° C | 68% | 1007.1 hPa | - | - | - | - |
| 1778331486 | 28.89° C | 68% | 1007.1 hPa | - | - | - | - |
| 1778330632 | 28.89° C | 68% | 1006.9 hPa | - | - | - | - |
| 1778330586 | 28.89° C | 68% | 1006.9 hPa | - | - | - | - |
| 1778329907 | 29.44° C | 67% | 1006.9 hPa | - | - | - | - |
| 1778329685 | 29.44° C | 67% | 1006.9 hPa | - | - | - | - |
| 1778328785 | 29.44° C | 66% | 1006.9 hPa | - | - | - | - |
| 1778327885 | 30° C | 65% | 1006.9 hPa | - | - | - | - |
| 1778326986 | 30° C | 65% | 1006.7 hPa | - | - | - | - |
| 1778326086 | 30° C | 63% | 1006.5 hPa | - | - | - | - |
| 1778325187 | 30.56° C | 62% | 1006.4 hPa | - | - | - | - |
| 1778324358 | 30.56° C | 62% | 1006 hPa | - | - | - | - |
| 1778324287 | 30.56° C | 62% | 1006 hPa | - | - | - | - |
| 1778323386 | 30.56° C | 61% | 1005.8 hPa | - | - | - | - |
| 1778322654 | 31.11° C | 60% | 1005.7 hPa | - | - | - | - |
| 1778322486 | 31.11° C | 60% | 1005.7 hPa | - | - | - | - |
| 1778321587 | 31.67° C | 58% | 1005.3 hPa | - | - | - | - |
| 1778320687 | 32.78° C | 56% | 1005.2 hPa | - | - | - | - |
| 1778319787 | 33.33° C | 54% | 1005.4 hPa | - | - | - | - |
| 1778318888 | 33.89° C | 53% | 1005.1 hPa | - | - | - | - |
| 1778317992 | 33.89° C | 52% | 1004.8 hPa | - | - | - | - |
| 1778317119 | 33.89° C | 52% | 1004.8 hPa | - | - | - | - |
* Rain since midnight (hover to see other rain measurements)
** Current wind speed in m/s (hover to see current wind gust speed)